Date String (YYYY-MM-DD hh:mm:ss) UTC,Instrument flags,Ambient pressure (hPa),Sample flow (lpm),Bypass flow (lpm),Sample temperature (°C),Ambient temperature (°C),ASC tube jacket temperature (°C),LED temperature (°C),Box temperature (°C),Sample RH (%),Span deviation,Mass concentration (μg/m³),Mass concentration (μg/m³),Mass concentration (μg/m³)
DateTimeUTC,F1_M11,P_M11,Q1_M11,Q2_M11,T1_M11,T2_M11,T3_M11,T4_M11,T5_M11,U1_M11,ZSPAN_M11,X0_M11,X2_M11,X1_M11
2022-12-01 03:00:00,,0821.0,5.00,0.00,22.5,22.4,00.0,31.2,24.5,09.9,0001.9,0028.85,0023.30,0022.46
2022-12-01 03:01:00,,0821.0,4.99,0.00,22.5,22.2,00.0,31.3,24.5,09.8,0001.8,0029.06,0023.45,0022.58
2022-12-01 03:02:00,,0821.0,5.00,0.00,22.5,21.9,00.0,31.3,24.5,09.8,0001.8,0029.44,0023.53,0022.67
2022-12-01 03:03:00,,0821.0,5.01,0.00,22.5,21.7,00.0,31.3,24.5,09.8,0001.3,0029.66,0023.66,0022.74
2022-12-01 03:04:00,,0821.0,5.01,0.00,22.5,21.6,00.0,31.4,24.4,09.8,0000.8,0029.84,0023.71,0022.80
2022-12-01 03:05:00,,0821.0,4.99,0.00,22.5,21.5,00.0,31.4,24.4,09.8,0000.5,0030.10,0023.75,0022.89
2022-12-01 03:06:00,,0821.0,4.98,0.00,22.5,21.4,00.0,31.4,24.4,09.8,-000.2,0030.18,0023.80,0022.94
2022-12-01 03:07:00,,0821.1,5.00,0.00,22.5,21.3,00.0,31.4,24.4,09.8,0000.1,0030.04,0023.88,0023.00
2022-12-01 03:08:00,,0821.2,5.00,0.00,22.5,21.3,00.0,31.4,24.3,09.8,0000.8,0030.00,0023.89,0023.02
2022-12-01 03:09:00,,0821.1,5.00,0.00,22.5,21.2,00.0,31.4,24.3,09.9,0000.5,0030.13,0023.90,0023.03
2022-12-01 03:10:00,,0821.0,5.00,0.00,22.5,21.2,00.0,31.4,24.3,09.9,0000.1,0030.08,0023.89,0023.02
2022-12-01 03:11:00,,0821.1,5.00,0.00,22.5,21.1,00.0,31.3,24.3,09.9,0000.3,0030.30,0023.85,0023.02
2022-12-01 03:12:00,,0821.1,5.00,0.00,22.5,21.1,00.0,31.4,24.3,09.9,0000.8,0030.16,0023.78,0023.01
2022-12-01 03:13:00,,0821.1,4.99,0.00,22.4,21.0,00.0,31.4,24.2,09.9,0001.2,0029.32,0023.72,0022.99
2022-12-01 03:14:00,,0821.0,5.00,0.00,22.4,20.9,00.0,31.3,24.2,09.9,0001.7,0029.32,0023.65,0022.95
2022-12-01 03:15:00,,0821.0,5.00,0.00,22.4,20.8,00.0,31.3,24.1,09.9,0002.3,0029.07,0023.58,0022.88
2022-12-01 03:16:00,,0821.1,5.00,0.00,22.3,20.8,00.0,31.3,24.1,09.9,0001.8,0028.67,0023.53,0022.81
2022-12-01 03:17:00,,0821.0,5.01,0.00,22.3,20.8,00.0,31.3,24.1,09.9,0001.8,0028.65,0023.53,0022.80
2022-12-01 03:18:00,,0821.0,5.01,0.00,22.3,21.0,00.0,31.3,24.1,09.9,0001.2,0029.08,0023.49,0022.80
2022-12-01 03:19:00,,0821.0,5.00,0.00,22.4,21.7,00.0,31.2,24.3,09.9,0000.6,0029.41,0023.54,0022.85
2022-12-01 03:20:00,,0821.0,4.98,0.00,22.5,22.3,00.0,31.3,24.5,09.9,0000.2,0029.31,0023.57,0022.90
2022-12-01 03:21:00,,0821.0,5.00,0.00,22.5,22.1,00.0,31.3,24.5,09.8,0000.1,0029.43,0023.61,0022.95
2022-12-01 03:22:00,,0820.9,5.00,0.00,22.5,21.7,00.0,31.3,24.4,09.8,-000.4,0029.59,0023.66,0022.97
2022-12-01 03:23:00,,0820.9,5.01,0.00,22.5,21.4,00.0,31.3,24.3,09.9,-000.5,0029.44,0023.75,0023.03
2022-12-01 03:24:00,,0820.9,5.00,0.00,22.4,21.0,00.0,31.4,24.2,09.9,-000.3,0029.60,0023.83,0023.08
2022-12-01 03:25:00,,0820.9,5.00,0.00,22.4,20.7,00.0,31.4,24.1,09.9,-000.1,0029.66,0023.91,0023.16
2022-12-01 03:26:00,,0821.0,5.00,0.00,22.3,20.6,00.0,31.3,24.1,09.9,0000.1,0029.66,0023.99,0023.26
2022-12-01 03:27:00,,0821.0,4.99,0.00,22.3,20.6,00.0,31.3,24.1,10.0,0000.6,0029.68,0024.08,0023.37
2022-12-01 03:28:00,,0821.1,5.00,0.00,22.3,20.5,00.0,31.3,24.0,10.0,0000.7,0029.60,0024.12,0023.43
2022-12-01 03:29:00,,0821.0,5.01,0.00,22.3,20.5,00.0,31.3,24.0,10.0,0001.1,0029.66,0024.22,0023.52
2022-12-01 03:30:00,,0821.1,5.01,0.00,22.2,20.5,00.0,31.3,24.0,10.1,0001.4,0029.27,0024.28,0023.61
2022-12-01 03:31:00,,0821.1,4.99,0.00,22.2,20.6,00.0,31.3,24.0,10.1,0002.0,0029.36,0024.34,0023.68
2022-12-01 03:32:00,,0821.0,4.99,0.00,22.2,20.5,00.0,31.2,24.0,10.1,0002.1,0029.42,0024.37,0023.73
2022-12-01 03:33:00,,0820.9,5.00,0.00,22.2,20.5,00.0,31.2,24.0,10.1,0002.5,0029.30,0024.46,0023.81
2022-12-01 03:34:00,,0820.9,5.01,0.00,22.2,20.5,00.0,31.2,23.9,10.1,0002.6,0030.12,0024.55,0023.88
2022-12-01 03:35:00,,0821.0,5.00,0.00,22.2,20.5,00.0,31.2,23.9,10.1,0002.3,0030.17,0024.62,0023.93
2022-12-01 03:36:00,,0821.0,4.99,0.00,22.2,21.0,00.0,31.1,24.0,10.1,0001.5,0030.15,0024.70,0024.01
2022-12-01 03:37:00,,0821.0,5.01,0.00,22.3,21.9,00.0,31.1,24.2,10.0,0001.5,0030.26,0024.82,0024.11
2022-12-01 03:38:00,,0821.0,4.98,0.00,22.4,22.3,00.0,31.1,24.3,10.0,0001.2,0030.43,0024.97,0024.26
2022-12-01 03:39:00,,0821.0,4.99,0.00,22.4,22.0,00.0,31.2,24.3,09.9,0000.8,0030.69,0025.14,0024.40
2022-12-01 03:40:00,,0820.9,5.00,0.00,22.4,21.8,00.0,31.2,24.3,09.9,0000.8,0030.58,0025.27,0024.51
2022-12-01 03:41:00,,0821.0,5.01,0.00,22.4,21.6,00.0,31.2,24.3,09.9,0000.6,0030.86,0025.42,0024.63
2022-12-01 03:42:00,,0821.0,5.00,0.00,22.4,21.4,00.0,31.2,24.2,09.9,0000.4,0031.19,0025.56,0024.76
2022-12-01 03:43:00,,0821.1,5.00,0.00,22.4,21.3,00.0,31.2,24.2,09.9,0000.3,0031.32,0025.69,0024.87
2022-12-01 03:44:00,,0821.0,5.00,0.00,22.4,21.1,00.0,31.2,24.2,10.0,0000.6,0031.24,0025.77,0024.93
2022-12-01 03:45:00,,0821.1,4.99,0.00,22.3,20.9,00.0,31.2,24.1,10.0,0000.8,0030.53,0025.80,0024.98
2022-12-01 03:46:00,,0821.0,5.00,0.00,22.3,20.7,00.0,31.2,24.0,10.1,0001.0,0030.91,0025.84,0025.05
2022-12-01 03:47:00,,0821.0,5.01,0.00,22.2,20.5,00.0,31.2,24.0,10.1,0001.6,0031.37,0025.91,0025.13
2022-12-01 03:48:00,,0821.0,5.00,0.00,22.2,20.3,00.0,31.2,23.9,10.1,0001.3,0032.20,0026.05,0025.25
2022-12-01 03:49:00,,0820.9,5.00,0.00,22.1,20.1,00.0,31.2,23.8,10.2,0001.7,0032.40,0026.09,0025.31
2022-12-01 03:50:00,,0820.9,5.01,0.00,22.1,20.0,00.0,31.2,23.7,10.2,0002.1,0032.59,0026.09,0025.34
2022-12-01 03:51:00,,0820.9,5.00,0.00,22.0,20.0,00.0,31.1,23.6,10.3,0002.2,0032.98,0026.10,0025.39
2022-12-01 03:52:00,,0821.0,5.00,0.00,22.0,20.5,00.0,31.1,23.8,10.3,0001.9,0032.78,0026.08,0025.40
2022-12-01 03:53:00,,0821.0,5.00,0.00,22.1,21.5,00.0,31.0,24.0,10.3,0002.1,0032.58,0026.09,0025.40
2022-12-01 03:54:00,,0821.0,5.00,0.00,22.2,21.9,00.0,31.0,24.1,10.2,0002.2,0032.98,0026.17,0025.46
2022-12-01 03:55:00,,0821.0,4.99,0.00,22.2,21.6,00.0,31.1,24.1,10.2,0002.2,0033.11,0026.28,0025.58
2022-12-01 03:56:00,,0821.0,4.99,0.00,22.2,21.4,00.0,31.1,24.1,10.2,0001.4,0033.19,0026.41,0025.70
2022-12-01 03:57:00,,0821.0,5.00,0.00,22.2,21.2,00.0,31.1,24.1,10.2,0000.7,0033.07,0026.49,0025.78
2022-12-01 03:58:00,,0821.0,5.01,0.00,22.2,21.0,00.0,31.1,24.0,10.2,0000.5,0032.68,0026.52,0025.81
2022-12-01 03:59:00,,0821.0,5.00,0.00,22.2,20.8,00.0,31.1,24.0,10.2,0000.3,0032.65,0026.46,0025.79
